GW5447 Weather Reports


time (UTC)temp
F
wind
direction
speed
knots
gust
knots
rain 1hr
in
rain 24hr
in
rain mn
in
humidity
%
barometer
mb
20260502233632 46 289 1.7 2.6 0.00 0.00 0.00 49 1017.0
20260502233129 46 346 0.0 0.9 0.00 0.00 0.00 49 1017.1
20260502232625 47 316 0.0 3.5 0.00 0.00 0.00 48 1017.1
20260502232123 47 232 0.9 0.9 0.00 0.00 0.00 49 1017.0
20260502231619 47 258 0.9 1.7 0.00 0.00 0.00 48 1017.0
20260502231117 47 266 0.0 1.7 0.00 0.00 0.00 49 1017.1
20260502230615 47 286 1.7 6.1 0.00 0.00 0.00 47 1017.2
20260502230115 47 300 1.7 3.5 0.00 0.00 0.00 47 1017.0
20260502225614 47 297 0.9 3.5 0.00 0.00 0.00 47 1017.0
20260502225112 47 313 0.9 2.6 0.00 0.00 0.00 47 1017.1
20260502224608 47 117 0.9 2.6 0.00 0.00 0.00 46 1017.0
20260502224105 47 286 1.7 5.2 0.00 0.00 0.00 45 1017.2
20260502223603 48 17 0.9 1.7 0.00 0.00 0.00 46 1017.1
20260502223101 48 335 2.6 2.6 0.00 0.00 0.00 45 1017.0
20260502222558 48 337 0.9 2.6 0.00 0.00 0.00 45 1017.0
20260502222054 48 150 0.0 2.6 0.00 0.00 0.00 45 1017.1
20260502221550 48 48 2.6 3.5 0.00 0.00 0.00 45 1017.0
20260502221048 48 320 1.7 2.6 0.00 0.00 0.00 45 1017.1
20260502220543 48 77 0.9 2.6 0.00 0.00 0.00 46 1017.0
20260502220040 48 347 0.0 1.7 0.00 0.00 0.00 45 1016.9
20260502215537 48 348 0.9 2.6 0.00 0.00 0.00 47 1017.0
20260502215034 48 310 0.9 1.7 0.00 0.00 0.00 49 1016.9
20260502214531 48 326 0.0 0.0 0.00 0.00 0.00 49 1016.8
20260502214029 48 254 0.9 2.6 0.00 0.00 0.00 52 1017.0
20260502213525 48 294 0.9 1.7 0.00 0.00 0.00 51 1016.9
20260502213023 48 241 0.9 1.7 0.00 0.00 0.00 49 1016.9
20260502212522 49 286 2.6 3.5 0.00 0.00 0.00 46 1016.6
20260502212019 49 336 0.9 2.6 0.00 0.00 0.00 45 1016.6
20260502211514 49 323 2.6 3.5 0.00 0.00 0.00 41 1016.7
20260502211012 49 272 1.7 6.1 0.00 0.00 0.00 41 1016.7
20260502210509 49 37 0.9 6.1 0.00 0.00 0.00 44 1016.6
20260502210006 49 259 0.0 2.6 0.00 0.00 0.00 45 1016.7
20260502205502 49 253 2.6 6.1 0.00 0.00 0.00 44 1016.7
20260502204959 50 335 1.7 2.6 0.00 0.00 0.00 43 1016.6
20260502204456 49 257 0.9 1.7 0.00 0.00 0.00 44 1016.7
20260502203954 50 15 0.9 5.2 0.00 0.00 0.00 43 1016.6
20260502203451 50 334 3.5 5.2 0.00 0.00 0.00 45 1016.7
20260502202947 50 218 0.9 2.6 0.00 0.00 0.00 45 1016.7
20260502202444 50 332 0.9 2.6 0.00 0.00 0.00 44 1016.7
20260502201942 49 100 1.7 2.6 0.00 0.00 0.00 44 1016.6
20260502201438 49 346 0.9 5.2 0.00 0.00 0.00 46 1016.8
20260502200935 49 36 2.6 6.1 0.00 0.00 0.00 45 1016.7
20260502200430 49 307 2.6 6.1 0.00 0.00 0.00 45 1016.9
20260502195928 50 291 1.7 5.2 0.00 0.00 0.00 44 1016.9
20260502195425 50 64 0.9 3.5 0.00 0.00 0.00 43 1016.8
20260502194922 49 79 1.7 5.2 0.00 0.00 0.00 45 1016.9
20260502194419 49 291 0.9 3.5 0.00 0.00 0.00 46 1017.1
20260502193914 49 277 1.7 2.6 0.00 0.00 0.00 47 1017.0
20260502193412 49 11 3.5 5.2 0.00 0.00 0.00 46 1017.0
20260502192907 50 306 1.7 5.2 0.00 0.00 0.00 43 1016.9
20260502192404 50 249 0.9 2.6 0.00 0.00 0.00 43 1017.0
20260502191902 50 281 2.6 7.8 0.00 0.00 0.00 45 1017.2
20260502191359 51 294 3.5 5.2 0.00 0.00 0.00 44 1017.1
20260502190856 51 278 1.7 5.2 0.00 0.00 0.00 44 1017.2
20260502190354 50 6 0.0 7.0 0.00 0.00 0.00 43 1017.1
20260502185850 51 241 2.6 5.2 0.00 0.00 0.00 42 1017.2
20260502185345 50 111 3.5 6.1 0.00 0.00 0.00 44 1017.3
20260502184843 50 227 1.7 6.1 0.00 0.00 0.00 45 1017.3
20260502184338 50 66 1.7 3.5 0.00 0.00 0.00 47 1017.3
20260502183835 50 245 3.5 6.1 0.00 0.00 0.00 47 1017.3
20260502183331 50 266 2.6 6.1 0.00 0.00 0.00 46 1017.2
20260502182826 50 267 2.6 5.2 0.00 0.00 0.00 47 1017.1
20260502182322 49 318 0.0 1.7 0.00 0.00 0.00 44 1017.3
20260502181819 50 273 1.7 2.6 0.00 0.00 0.00 46 1017.3
20260502181317 51 249 1.7 5.2 0.00 0.00 0.00 44 1017.2
20260502180815 51 17 3.5 7.0 0.00 0.00 0.00 47 1017.2
20260502180312 51 342 1.7 5.2 0.00 0.00 0.00 43 1017.2
20260502170231 48 226 3.5 7.0 0.00 0.00 0.00 45 1017.7
20260502164218 47 316 1.7 3.5 0.00 0.00 0.00 51 1017.4
20260502163713 48 300 2.6 6.1 0.00 0.00 0.00 49 1017.6
20260502163210 47 284 1.7 2.6 0.00 0.00 0.00 49 1017.5
20260502162708 47 302 0.9 3.5 0.00 0.00 0.00 49 1017.7
20260502162204 47 232 0.9 7.8 0.00 0.00 0.00 48 1017.8
20260502161701 48 64 1.7 6.1 0.00 0.00 0.00 51 1017.8
20260502161158 50 263 2.6 5.2 0.00 0.00 0.00 48 1017.9
20260502160656 50 2 1.7 5.2 0.00 0.00 0.00 47 1017.9
20260502160155 50 216 0.0 5.2 0.00 0.00 0.00 49 1017.9
20260502152103 46 308 0.0 0.9 0.00 0.00 0.00 56 1017.9
20260502151600 46 228 2.6 5.2 0.00 0.00 0.00 54 1017.8
20260502151057 46 332 1.7 1.7 0.00 0.00 0.00 57 1017.6
20260502150554 46 5 0.9 6.1 0.00 0.00 0.00 55 1017.9
20260502130439 39 227 0.9 3.5 0.00 0.00 0.00 80 1017.4
20260502123422 36 274 0.9 3.5 0.00 0.00 0.00 99 1017.6
20260502122919 35 87 1.7 2.6 0.00 0.00 0.00 99 1017.4
20260502122415 35 300 1.7 2.6 0.00 0.00 0.00 99 1017.3
20260502121914 35 262 0.0 0.9 0.00 0.00 0.00 99 1017.3
20260502121410 34 344 1.7 1.7 0.00 0.00 0.00 99 1017.2
20260502120908 34 209 0.0 0.0 0.00 0.00 0.00 99 1017.1
20260502120404 34 52 0.0 0.0 0.00 0.00 0.00 99 1017.4
20260502115901 34 210 0.0 0.0 0.00 0.00 0.00 99 1017.3
20260502115358 33 206 0.0 0.0 0.00 0.00 0.00 99 1017.1
20260502114854 33 206 0.0 0.0 0.00 0.00 0.00 99 1017.2
20260502114352 33 206 0.0 0.0 0.00 0.00 0.00 99 1017.0
20260502113848 33 206 0.0 0.0 0.00 0.00 0.00 99 1017.2
20260502113346 34 206 0.0 0.0 0.00 0.00 0.00 99 1017.2
20260502112844 33 205 0.0 0.0 0.00 0.00 0.00 99 1017.0
20260502112341 32 205 0.0 0.0 0.00 0.00 0.00 99 1017.0
20260502111834 31 205 0.0 0.0 0.00 0.00 0.00 99 1017.0
20260502111331 31 205 0.0 0.0 0.00 0.00 0.00 99 1017.0
20260502110828 31 206 0.0 0.0 0.00 0.00 0.00 99 1016.9
20260502110326 31 206 0.0 0.0 0.00 0.00 0.00 99 1017.0
20260502105823 31 206 0.0 0.0 0.00 0.00 0.00 99 1017.0
20260502105320 31 206 0.0 0.0 0.00 0.00 0.00 99 1016.8
20260502104817 31 206 0.0 0.0 0.00 0.00 0.00 99 1016.9
20260502104315 30 206 0.0 0.0 0.00 0.00 0.00 99 1016.9
20260502103812 30 206 0.0 0.0 0.00 0.00 0.00 99 1017.0
20260502103309 30 206 0.0 0.0 0.00 0.00 0.00 99 1016.8
20260502102807 31 206 0.0 0.0 0.00 0.00 0.00 99 1016.8
20260502102306 31 206 0.0 0.0 0.00 0.00 0.00 99 1016.8
20260502101801 31 206 0.0 0.0 0.00 0.00 0.00 99 1017.1
20260502101258 31 206 0.0 0.0 0.00 0.00 0.00 99 1016.9
20260502100756 31 206 0.0 0.0 0.00 0.00 0.00 99 1016.9
20260502100255 31 206 0.0 0.0 0.00 0.00 0.00 99 1016.9
20260502091229 32 206 0.0 0.0 0.00 0.00 0.00 99 1016.9
20260502090726 32 206 0.0 0.0 0.00 0.00 0.00 99 1016.8
20260502090223 32 206 0.0 0.0 0.00 0.00 0.00 99 1016.5
20260502071124 33 207 0.0 0.0 0.00 0.00 0.00 99 1016.7
20260502070622 33 207 0.0 0.0 0.00 0.00 0.00 99 1016.7
20260502070120 33 207 0.0 0.0 0.00 0.00 0.00 99 1016.7
20260502065618 33 207 0.0 0.0 0.00 0.12 0.12 99 1016.7
20260502065115 33 207 0.0 0.0 0.00 0.12 0.12 99 1016.8
20260502064614 33 207 0.0 0.0 0.00 0.12 0.12 99 1016.8
20260502064111 33 207 0.0 0.0 0.00 0.12 0.12 98 1016.9
20260502063608 34 207 0.0 0.0 0.00 0.12 0.12 98 1016.9
20260502063106 34 207 0.0 0.0 0.00 0.12 0.12 98 1016.9
20260502062603 34 207 0.0 0.0 0.00 0.12 0.12 98 1017.0
20260502062101 34 207 0.0 0.0 0.00 0.12 0.12 98 1016.9
20260502061559 35 207 0.0 0.0 0.00 0.12 0.12 98 1016.9
20260502061056 35 208 0.0 0.0 0.00 0.12 0.12 98 1017.0
20260502060555 35 208 0.0 0.0 0.00 0.12 0.12 98 1017.1
20260502060053 35 203 0.0 0.0 0.00 0.12 0.12 98 1016.9
20260502055550 35 203 0.0 0.0 0.00 0.12 0.12 98 1017.1
20260502055049 35 203 0.0 0.0 0.00 0.12 0.12 98 1017.0
20260502054547 35 203 0.0 0.0 0.00 0.12 0.12 98 1017.2
20260502054044 35 203 0.0 0.0 0.00 0.12 0.12 98 1017.1
20260502053541 36 203 0.0 0.0 0.00 0.12 0.12 98 1017.2
20260502053039 36 203 0.0 0.0 0.00 0.12 0.12 98 1017.3
20260502052537 36 211 0.0 0.0 0.00 0.12 0.12 98 1017.3
20260502052035 36 211 0.0 0.0 0.00 0.12 0.12 98 1017.1
20260502051532 36 226 0.0 0.0 0.00 0.12 0.12 98 1017.1
20260502051030 36 227 0.0 0.0 0.00 0.12 0.12 98 1017.1
20260502050526 36 229 0.0 0.0 0.00 0.12 0.12 98 1017.1
20260502050023 36 192 0.0 0.0 0.00 0.12 0.12 98 1017.1
20260502045520 36 192 0.0 0.0 0.00 0.12 0.12 98 1017.2
20260502045017 36 192 0.0 0.0 0.00 0.12 0.12 98 1017.0
20260502044513 36 192 0.0 0.0 0.00 0.12 0.12 98 1016.9
20260502044010 36 192 0.0 0.0 0.00 0.12 0.12 97 1017.0
20260502043508 37 192 0.0 0.0 0.00 0.12 0.12 98 1017.0
20260502043004 37 192 0.0 0.0 0.00 0.12 0.12 97 1017.0
20260502042459 37 192 0.0 0.0 0.00 0.12 0.12 97 1017.1
20260502041956 37 192 0.0 0.0 0.00 0.12 0.12 97 1016.9
20260502041454 37 192 0.0 0.0 0.00 0.12 0.12 97 1017.0
20260502040951 37 192 0.0 0.0 0.00 0.12 0.12 97 1017.1
20260502040447 37 192 0.0 0.0 0.00 0.12 0.12 97 1017.0
20260502035943 37 192 0.0 0.0 0.00 0.12 0.12 97 1017.0
20260502035440 38 191 0.0 0.0 0.00 0.12 0.12 97 1016.9
20260502034938 38 191 0.0 0.0 0.00 0.12 0.12 97 1016.8
20260502034437 38 192 0.0 0.0 0.00 0.12 0.12 97 1017.1
20260502033935 38 173 0.0 0.0 0.00 0.12 0.12 97 1017.0
20260502033432 38 173 0.0 0.0 0.00 0.12 0.12 97 1016.8
20260502032928 38 173 0.0 0.0 0.00 0.12 0.12 97 1017.1
20260502032425 38 173 0.0 0.0 0.00 0.12 0.12 97 1017.1
20260502031922 38 173 0.0 0.0 0.00 0.12 0.12 96 1017.1
20260502031421 38 173 0.0 0.0 0.00 0.12 0.12 96 1017.0
20260502030919 39 173 0.0 0.0 0.00 0.12 0.12 96 1017.1
20260502030417 39 173 0.0 0.0 0.00 0.12 0.12 96 1017.1
20260502025914 39 173 0.0 0.0 0.00 0.12 0.12 96 1017.0
20260502025411 39 173 0.0 0.0 0.00 0.12 0.12 96 1017.0
20260502024909 39 173 0.0 0.0 0.00 0.12 0.12 96 1017.3
20260502024407 39 159 0.0 0.0 0.00 0.12 0.12 96 1017.3
20260502023904 39 154 0.0 0.0 0.00 0.12 0.12 95 1017.1
20260502023402 40 154 0.0 0.0 0.00 0.12 0.12 95 1017.1
20260502022859 40 155 0.0 0.0 0.00 0.12 0.12 95 1017.1
20260502022355 40 146 0.0 0.0 0.00 0.12 0.12 95 1016.9
20260502021852 40 187 0.0 0.0 0.00 0.12 0.12 94 1016.9
20260502021349 40 187 0.0 0.0 0.00 0.12 0.12 94 1016.9
20260502020847 41 187 0.0 0.0 0.00 0.12 0.12 94 1016.8
20260502020345 41 187 0.0 0.0 0.00 0.12 0.12 94 1016.5
20260502015841 41 191 0.0 0.0 0.00 0.12 0.12 93 1016.5
20260502015338 41 191 0.0 0.0 0.00 0.12 0.12 93 1016.6
20260502014836 42 191 0.0 0.0 0.00 0.12 0.12 92 1016.4
20260502014333 42 192 0.0 0.0 0.00 0.12 0.12 92 1016.4
20260502013829 42 192 0.0 0.0 0.00 0.12 0.12 91 1016.1
20260502013324 42 192 0.0 0.0 0.00 0.12 0.12 91 1016.3
20260502012821 43 192 0.0 0.0 0.00 0.12 0.12 90 1016.0
20260502012319 43 180 0.0 0.0 0.00 0.12 0.12 88 1016.1
20260502011816 43 180 0.0 0.0 0.07 0.12 0.12 87 1015.9
20260502011312 44 213 0.0 0.9 0.07 0.12 0.12 86 1015.8
20260502010809 44 123 0.0 0.0 0.07 0.11 0.11 83 1015.9
20260502010305 45 121 0.9 1.7 0.07 0.11 0.11 80 1015.8
20260502005802 46 322 0.9 1.7 0.00 0.10 0.10 77 1015.9
20260502005300 46 298 1.7 1.7 0.00 0.10 0.10 76 1015.6
20260502004757 47 91 0.0 0.9 0.00 0.10 0.10 77 1015.5
20260502004253 46 5 0.9 2.6 0.00 0.10 0.10 77 1015.4
20260502003752 46 175 0.0 0.0 0.00 0.10 0.10 80 1015.1
20260502003248 46 174 0.0 0.0 0.00 0.10 0.10 80 1015.1
20260502002744 47 203 0.0 0.9 0.00 0.10 0.10 79 1015.3
20260502002242 47 232 0.0 0.0 0.00 0.10 0.10 75 1015.3
20260502001739 48 234 0.0 0.0 0.00 0.10 0.10 72 1015.4
20260502001237 48 235 0.0 0.9 0.00 0.10 0.10 71 1015.3
20260502000735 48 356 0.0 0.9 0.00 0.10 0.10 71 1015.4
20260502000233 48 270 0.9 1.7 0.00 0.10 0.10 71 1015.2
20260501235727 48 195 0.0 2.6 0.00 0.10 0.10 71 1015.1
20260501235223 48 225 0.0 0.0 0.00 0.10 0.10 74 1014.8
20260501234719 48 227 0.0 0.0 0.00 0.10 0.10 73 1014.7
20260501234216 48 265 0.0 0.9 0.00 0.10 0.10 70 1014.7